FW6966 Weather Reports


time (UTC)temp
C
wind
direction
speed
KPH
gust
KPH
rain 1hr
cm
rain 24hr
cm
rain mn
cm
humidity
%
barometer
mb
20260507213146 21 351 12.9 25.7 0.00 0.00 0.00 37 1017.4
20260507211541 22 344 14.5 22.5 0.00 0.00 0.00 37 1017.5
20260507210030 22 326 12.9 24.1 0.00 0.00 0.00 36 1017.6
20260507204532 22 339 9.7 22.5 0.00 0.00 0.00 36 1017.9
20260507203028 22 46 8.0 17.7 0.00 0.00 0.00 37 1018.1
20260507201531 22 30 9.7 22.5 0.00 0.00 0.00 36 1018.2
20260507194531 22 336 4.8 14.5 0.00 0.00 0.00 39 1018.4
20260507193145 21 11 4.8 11.3 0.00 0.00 0.00 42 1018.5
20260507191530 21 333 6.4 16.1 0.00 0.00 0.00 43 1018.7
20260507190033 21 350 6.4 16.1 0.00 0.00 0.00 44 1018.8
20260507184529 20 330 4.8 12.9 0.00 0.00 0.00 46 1019.0
20260507183040 19 317 11.3 19.3 0.00 0.00 0.00 48 1019.1
20260507181531 18 318 9.7 17.7 0.00 0.00 0.00 52 1019.2
20260507180031 18 349 9.7 17.7 0.00 0.00 0.00 54 1019.3
20260507174532 17 327 9.7 17.7 0.00 0.00 0.00 59 1019.4
20260507171533 16 343 12.9 24.1 0.00 0.00 0.00 63 1019.6
20260507170032 15 339 12.9 20.9 0.00 0.00 0.00 65 1019.6
20260507164531 15 318 8.0 16.1 0.00 0.00 0.00 67 1019.6
20260507163032 15 264 8.0 16.1 0.00 0.00 0.00 66 1019.5
20260507161532 15 249 3.2 9.7 0.00 0.00 0.00 66 1019.8
20260507160032 15 246 6.4 11.3 0.00 0.00 0.00 68 1020.1
20260507154530 15 261 4.8 11.3 0.00 0.00 0.00 73 1020.2
20260507153031 13 227 3.2 11.3 0.00 0.00 0.00 81 1020.3
20260507151530 12 209 0.0 6.4 0.00 0.00 0.00 85 1020.4
20260507150034 11 307 3.2 6.4 0.00 0.00 0.00 89 1020.4
20260507134532 7 160 0.0 6.4 0.00 0.00 0.00 91 1020.1
20260507133028 6 157 1.6 4.8 0.00 0.00 0.00 91 1020.1
20260507131606 7 157 1.6 6.4 0.00 0.00 0.00 91 1020.1
20260507124530 7 63 0.0 4.8 0.00 0.00 0.00 90 1020.0
20260507123107 7 117 3.2 8.0 0.00 0.00 0.00 90 1019.8
20260507121531 7 93 3.2 8.0 0.00 0.00 0.00 89 1019.7
20260507120029 7 101 1.6 6.4 0.00 0.00 0.00 88 1019.7
20260507114534 7 132 1.6 6.4 0.00 0.00 0.00 87 1019.5
20260507113030 8 23 0.0 4.8 0.00 0.00 0.00 86 1019.5
20260507111531 8 111 3.2 6.4 0.00 0.00 0.00 85 1019.3
20260507110029 8 68 1.6 6.4 0.00 0.00 0.00 84 1019.3
20260507104607 9 109 4.8 9.7 0.00 0.00 0.00 83 1019.2
20260507103106 10 87 4.8 11.3 0.00 0.00 0.00 82 1019.1
20260507101531 10 79 8.0 14.5 0.00 0.00 0.00 80 1019.0
20260507100036 11 49 4.8 11.3 0.00 0.00 0.00 80 1019.1
20260507094531 10 337 6.4 11.3 0.00 0.00 0.00 82 1019.1
20260507093031 10 36 3.2 12.9 0.00 0.00 0.00 83 1019.2
20260507091605 10 55 4.8 14.5 0.00 0.00 0.00 82 1019.2
20260507090032 11 95 3.2 9.7 0.00 0.00 0.00 82 1019.1
20260507081531 11 33 3.2 9.7 0.00 0.00 0.00 79 1019.3
20260507074531 12 26 3.2 8.0 0.00 0.00 0.00 75 1019.3
20260507071532 12 317 4.8 11.3 0.00 0.00 0.00 74 1019.2
20260507070029 11 320 1.6 6.4 0.00 0.00 0.00 75 1019.3
20260507064532 12 317 0.0 4.8 0.00 0.00 0.00 74 1019.4
20260507063030 12 22 0.0 4.8 0.00 0.00 0.00 71 1019.5
20260507061530 13 12 3.2 8.0 0.00 0.00 0.00 67 1019.6
20260507054531 15 283 8.0 14.5 0.00 0.00 0.00 61 1019.7
20260507051529 15 261 14.5 22.5 0.00 0.00 0.00 58 1019.6
20260507050029 15 264 9.7 16.1 0.00 0.00 0.00 56 1019.8
20260507044529 15 269 4.8 9.7 0.00 0.00 0.00 54 1019.9
20260507043029 16 255 0.0 8.0 0.00 0.00 0.00 52 1019.8
20260507041607 16 276 6.4 24.1 0.00 0.00 0.00 52 1019.7
20260507040035 16 273 12.9 24.1 0.00 0.00 0.00 52 1019.5
20260507034531 16 274 9.7 20.9 0.00 0.00 0.00 52 1019.5
20260507024607 18 286 17.7 35.4 0.00 0.00 0.00 50 1018.8
20260507023029 18 285 17.7 32.2 0.00 0.00 0.00 50 1018.9
20260507021530 18 288 12.9 27.4 0.00 0.00 0.00 49 1018.8
20260507020029 18 282 14.5 24.1 0.00 0.00 0.00 49 1018.7
20260507014529 19 275 11.3 24.1 0.00 0.00 0.00 48 1018.6
20260507013030 19 278 11.3 27.4 0.00 0.00 0.00 48 1018.5
20260507011530 20 285 12.9 24.1 0.00 0.00 0.00 46 1018.4
20260507010031 20 286 16.1 35.4 0.00 0.00 0.00 45 1018.3
20260507004529 20 286 16.1 30.6 0.00 0.00 0.00 45 1018.2
20260507003031 20 282 16.1 30.6 0.00 0.00 0.00 45 1018.1
20260507001605 20 281 12.9 25.7 0.00 0.00 0.00 46 1018.0
20260507000029 21 300 11.3 29.0 0.00 0.00 0.00 46 1017.9
20260506234531 21 285 14.5 29.0 0.00 0.00 0.00 45 1017.7
20260506233032 22 301 11.3 22.5 0.00 0.00 0.00 44 1017.8
20260506231530 23 297 12.9 30.6 0.00 0.00 0.00 43 1017.7
20260506230031 23 298 12.9 25.7 0.00 0.00 0.00 44 1018.0
20260506224528 23 309 12.9 30.6 0.00 0.00 0.00 44 1018.1
20260506223032 23 301 16.1 27.4 0.00 0.00 0.00 44 1018.2
20260506220031 23 293 16.1 33.8 0.00 0.00 0.00 43 1018.0
20260506214531 24 298 14.5 30.6 0.00 0.00 0.00 43 1018.0